Home   Weather   Stange   Past weeks

Flag for Norway Past Weather in Stange, Norway — Yesterday and Last 2 Weeks

Now
32 °F

Clear.


Feels Like: 32 °F
Forecast: 24 / 35 °F
Wind: No wind

Location: Oslo Gardermoen Airport

Current Time: Dec 4, 2016 at 9:28:39 pm

Latest Report: Dec 4, 2016 at 8:50 pm


Visibility: 10 mi

Pressure: 30.01 "Hg

Humidity: 87%

Dew Point: 28 °F

Location of StangeLocation

Past Weather in Stange — Graph

°F

Stange Temperature Yesterday

Maximum temperature yesterday: 32 °F (at 1:20 am)
Minimum temperature yesterday: 21 °F (at 10:50 pm)
Average temperature yesterday: 27 °F

High & Low Weather Summary for the Past Weeks

 TemperatureHumidityPressure
High48 °F (Nov 25, 5:50 pm)100% (Nov 19, 8:20 pm)30.39 "Hg (Nov 19, 8:20 pm)
Low18 °F (Dec 4, 12:50 am)36% (Nov 26, 2:20 pm)29.33 "Hg (Nov 21, 2:20 am)
Average33 °F74%29.88 "Hg
* Reported Nov 19 7:20 pm — Dec 4 7:50 pm, Stange, Weather by CustomWeather, © 2016

Note: Actual official high and low records may vary slightly from our data, if they occured in-between our weather recording intervals... More about our weather records

Advertising

Stange Weather History for the Previous 24 Hours

Scroll right to see more
 ConditionsComfort  
Time TempWeatherWind HumidityBarometerVisibility
7:50 pm
Sun, Dec 4
30 °FClear.1 mph86%30.01 "Hg10 mi
7:20 pm30 °FClear.2 mph86%30.01 "Hg10 mi
6:50 pm30 °FPassing clouds.5 mph86%30.01 "HgN/A
6:20 pm28 °FClear.2 mph93%30.01 "Hg10 mi
5:50 pm30 °FClear.2 mph86%30.04 "Hg10 mi
5:20 pm28 °FPassing clouds.3 mph86%30.04 "HgN/A
4:50 pm28 °FPassing clouds.3 mph86%30.04 "HgN/A
4:20 pm27 °FClear.1 mph93%30.04 "Hg10 mi
3:50 pm28 °FPassing clouds.3 mph86%30.04 "HgN/A
3:20 pm27 °FPassing clouds.3 mph93%30.04 "HgN/A
2:50 pm27 °FPassing clouds.3 mph86%30.04 "HgN/A
2:20 pm27 °FSunny.2 mph93%30.04 "Hg10 mi
1:50 pm27 °FPassing clouds.3 mph86%30.07 "HgN/A
1:20 pm27 °FSunny.3 mph86%30.07 "Hg10 mi
12:50 pm27 °FSunny.No wind86%30.07 "Hg10 mi
12:20 pm25 °FPassing clouds.3 mph93%30.07 "HgN/A
11:50 am25 °FSunny.1 mph86%30.09 "Hg10 mi
11:20 am25 °FSunny.1 mph86%30.09 "Hg10 mi
10:50 am23 °FSunny.No wind93%30.09 "Hg10 mi
10:20 am23 °FSunny.No wind93%30.09 "Hg10 mi
9:50 am23 °FSunny.No wind93%30.09 "Hg10 mi
9:20 am23 °FSunny.1 mph93%30.09 "Hg10 mi
8:50 am23 °FClear.2 mph86%30.09 "Hg10 mi
8:20 am21 °FClear.2 mph93%30.09 "Hg10 mi
7:50 am21 °FClear.No wind86%30.09 "Hg10 mi
7:20 am19 °FClear.No wind93%30.09 "Hg10 mi
6:50 am18 °FClear.1 mph93%30.09 "Hg10 mi
6:20 am19 °FClear.No wind86%30.09 "Hg10 mi
5:50 am19 °FClear.No wind86%30.09 "Hg10 mi
5:20 am19 °FClear.2 mph93%30.09 "Hg10 mi
4:50 am21 °FClear.No wind86%30.09 "Hg10 mi
4:20 am21 °FClear.No wind86%30.12 "Hg10 mi
3:50 am19 °FClear.No wind93%30.12 "Hg10 mi
3:20 am19 °FClear.No wind93%30.12 "Hg10 mi
2:50 am19 °FClear.No wind86%30.12 "Hg10 mi
2:20 am18 °FClear.1 mph93%30.12 "Hg10 mi
1:50 am18 °FClear.No wind93%30.12 "Hg10 mi
1:20 am18 °FClear.No wind93%30.12 "Hg10 mi
12:50 am18 °FClear.No wind86%30.12 "Hg10 mi
12:20 am19 °FClear.No wind86%30.12 "Hg10 mi
11:50 pm
Sat, Dec 3
21 °FClear.No wind86%30.12 "Hg10 mi
11:20 pm21 °FClear.No wind86%30.12 "Hg10 mi
10:50 pm21 °FClear.No wind86%30.12 "Hg10 mi
10:20 pm23 °FClear.No wind86%30.12 "Hg10 mi
9:50 pm23 °FClear.No wind86%30.12 "Hg10 mi
9:20 pm23 °FClear.No wind86%30.12 "Hg10 mi
Weather by CustomWeather, © 2016

See weather overviewHow to use our weather pages